This is the latest recevied weather packets stored in our database for station/object K6QM-1. If no packets are shown the sender has not sent any weather packets the latest 10 day(s).
| Time | Temp. | Humidity | Pressure | Rain* | Wind** | Luminosity | Snow |
|---|---|---|---|---|---|---|---|
| 1777298990 | 14.44° C | 67% | 1017.6 hPa | - | - | - | - |
| 1777298090 | 13.89° C | 71% | 1017.8 hPa | - | - | - | - |
| 1777297190 | 14.44° C | 63% | 1017.5 hPa | - | - | - | - |
| 1777295390 | 15° C | 58% | 1016.9 hPa | - | - | - | - |
| 1777294490 | 15° C | 57% | 1016.7 hPa | - | - | - | - |
| 1777293590 | 15° C | 57% | 1016.8 hPa | - | - | - | - |
| 1777292690 | 15° C | 57% | 1016.8 hPa | - | - | - | - |
| 1777291789 | 15° C | 56% | 1016.9 hPa | - | - | - | - |
| 1777290889 | 15° C | 57% | 1016.9 hPa | - | - | - | - |
| 1777289989 | 15° C | 56% | 1017 hPa | - | - | - | - |
| 1777289090 | 15° C | 56% | 1017.1 hPa | - | - | - | - |
| 1777288189 | 15° C | 55% | 1017.1 hPa | - | - | - | - |
| 1777287289 | 15.56° C | 55% | 1017.2 hPa | - | - | - | - |
| 1777286389 | 15.56° C | 55% | 1017.2 hPa | - | - | - | - |
| 1777285489 | 15.56° C | 54% | 1017.3 hPa | - | - | - | - |
| 1777284589 | 15.56° C | 54% | 1017.3 hPa | - | - | - | - |
| 1777283689 | 15.56° C | 53% | 1017.5 hPa | - | - | - | - |
| 1777282789 | 15.56° C | 53% | 1017.6 hPa | - | - | - | - |
| 1777281889 | 15.56° C | 53% | 1017.6 hPa | - | - | - | - |
| 1777280989 | 15.56° C | 53% | 1017.5 hPa | - | - | - | - |
| 1777280089 | 15.56° C | 53% | 1017.6 hPa | - | - | - | - |
| 1777279188 | 15° C | 56% | 1017.8 hPa | - | - | - | - |
| 1777278289 | 15° C | 54% | 1019 hPa | - | - | - | - |
| 1777277388 | 15.56° C | 53% | 1017.9 hPa | - | - | - | - |
| 1777276488 | 15.56° C | 53% | 1018 hPa | - | - | - | - |
* Rain since midnight (hover to see other rain measurements)
** Current wind speed in m/s (hover to see current wind gust speed)